Location: Ostrava
(49.8330°N, 18.2830°E)
Time: 10:36:44
(UTC+02:00)

Daily predictions for brighter satellites

Satellite Brightness Start Highest point End
(mag) Time Altitude Azimuth Time Altitude Azimuth Time Altitude Azimuth
Cosmos 2360 4.2 20:21:11 10° SSW 20:26:53 74° ESE 20:32:39 10° NNE
Cosmos 1092 Rocket 4.3 20:21:06 10° NNW 20:27:27 77° W 20:33:46 10° S
Cosmos 1354 Rocket 4.1 20:23:42 10° NNW 20:29:02 89° ENE 20:34:18 10° SSE
Meteor 2-20 Rocket 4.5 20:24:07 10° N 20:30:15 75° ENE 20:36:23 10° SSE
Cosmos 1634 Rocket 4.1 20:25:03 10° S 20:31:18 70° E 20:37:37 10° NNE
Abrixas rocket 2.8 20:28:23 10° SW 20:31:28 38° SSE 20:34:33 10° E
SAR-Lupe-4 3.5 20:28:15 10° SSE 20:31:51 82° ENE 20:35:28 10° NNW
Cosmos 1862 3.7 20:28:36 10° N 20:32:31 48° ENE 20:36:26 10° SSE
Cosmos 1867 4.1 20:27:53 10° NW 20:33:13 49° NE 20:38:30 10° ESE
Spot 2 Rocket 4.4 20:30:40 10° S 20:35:37 51° W 20:40:36 10° NNW
Cosmos 1655 Rocket 4.1 20:29:59 10° N 20:36:23 66° ENE 20:42:42 10° SSE
USA 234 3.5 20:30:06 10° SE 20:36:37 69° SW 20:43:10 10° WNW
SPOT 5 4.1 20:37:00 10° ESE 20:40:56 26° ENE 20:44:43 10° N
Cosmos 1408 2.6 20:37:32 10° N 20:41:16 87° E 20:44:57 10° S
Cosmos 968 Rocket 4.1 20:37:16 10° NNW 20:42:12 42° ENE 20:47:08 10° SE
Helios 1B rocket 2.5 20:38:09 10° NNE 20:42:14 58° ESE 20:46:17 10° S
H-2A R/B 3.6 20:39:46 10° E 20:43:10 19° ENE 20:46:32 10° NNE
Lacrosse 4 Rocket 2.0 20:39:12 10° NW 20:43:27 60° WSW 20:47:46 10° SSE
Cosmos 1697 Rocket 4.0 20:42:39 10° SW 20:48:04 45° NW 20:53:30 10° NNE
Cosmos 1939 Rocket 2.8 20:45:08 10° SSE 20:49:11 85° ENE 20:53:12 10° NNW
SAR-Lupe-1 4.3 20:45:45 10° S 20:49:19 74° WSW 20:52:56 10° NNW
CZ-4B DEB 3.1 20:52:05 10° S 20:55:05 63° WSW 20:58:07 10° NNW
Cosmos 1707 Rocket 4.4 20:50:56 10° SSW 20:55:17 54° WNW 20:59:38 10° N
Envisat 3.2 20:50:27 10° S 20:55:32 74° WSW 21:00:39 10° NNW
Intercosmos 25 Rocket 3.2 20:52:17 10° S 20:55:32 73° E 21:00:02 10° NNE
Cosmos 1733 Rocket 3.1 20:52:25 10° N 20:56:54 89° E 21:01:22 10° S
Cosmos 2263 Rocket 2.2 20:54:18 10° NNW 20:59:53 84° WSW 21:05:28 10° SSE
Meteor 2-10 Rocket 4.2 20:58:13 10° SSE 21:03:39 42° E 21:09:03 10° NNE
Cosmos 1455 4.3 21:01:03 10° SW 21:04:28 31° WNW 21:07:52 10° N
CENTAUR R/B 3.7 21:01:13 10° WSW 21:07:26 51° NW 21:14:32 10° NE
Cosmos 1862 Rocket 3.6 21:04:01 10° S 21:08:27 68° E 21:12:56 10° NNE
Cosmos 2322 Rocket 2.1 21:04:49 10° SSW 21:10:25 76° ESE 21:16:04 10° NNE
Meteor 1-29 3.1 21:07:15 10° NNE 21:10:45 80° WNW 21:14:13 10° SSW
COSMOS 2428 4.2 21:09:25 14° ESE 21:11:14 17° E 21:14:42 10° ENE
CZ-4C R/B 3.8 21:05:18 10° NW 21:11:20 36° NNE 21:18:06 10° E
Cosmos 2279 Rocket 4.0 21:05:25 10° S 21:11:40 82° E 21:17:56 10° N
Okean 1-7 4.2 21:16:19 18° SE 21:18:25 25° E 21:22:02 10° NNE
USA 229 DEB 4.4 21:13:36 10° S 21:19:21 30° ESE 21:25:10 10° ENE
USA 229 4.4 21:13:43 10° S 21:19:26 29° ESE 21:25:14 10° ENE
YAOGAN 6 2.8 21:15:51 10° S 21:19:29 73° WSW 21:23:06 10° NNW
Cosmos 2360 Rocket 2.6 21:15:14 10° S 21:20:26 39° ESE 21:25:41 10° NE
Cosmos 1980 Rocket 3.6 21:16:03 10° WSW 21:21:27 42° NW 21:26:53 10° NNE
ERS-1 Rocket 3.1 21:22:10 10° S 21:27:11 76° WSW 21:32:15 10° NNW
Cosmos 1703 Rocket 3.9 21:25:21 16° SSE 21:28:35 44° E 21:32:48 10° NNE
Cosmos 2322 4.1 21:24:46 10° S 21:30:03 40° ESE 21:35:21 10° NE
SPOT 1/Viking Rocket 3.9 21:26:42 19° SE 21:30:15 50° ENE 21:35:18 10° N
NOAA 11 4.2 21:26:05 14° SSE 21:30:53 84° ENE 21:36:25 10° NNW
YAOGAN 11 4.0 21:29:43 18° SSE 21:33:00 82° ENE 21:37:22 10° NNW
SL-08 RB Rocket 3.9 21:31:06 21° SE 21:33:58 54° ENE 21:38:26 10° N
Cosmos 2221 Rocket 4.0 21:35:51 22° SSE 21:38:13 42° E 21:42:25 10° NNE
SeaSat 1 2.4 21:34:55 21° SSE 21:38:17 87° ENE 21:43:16 10° NNW
SL-16 R/B 2.5 21:33:03 10° SW 21:38:43 73° WNW 21:44:26 10° NNE
ATLAS 5 CENTAUR R/B 2.7 21:32:56 10° NW 21:38:45 62° SW 21:43:23 19° SSE
MetOp-B 4.2 21:35:41 15° SSE 21:40:07 85° WSW 21:45:31 10° NNW
Terra 2.9 21:38:51 20° ESE 21:41:07 30° ENE 21:45:16 10° N
USA 267 3.8 21:35:57 10° ENE 21:42:23 62° NNW 21:48:50 10° W
Cosmos 1777 Rocket 4.1 21:40:59 10° NNW 21:46:17 70° ENE 21:49:17 26° SE
Cosmos 1992 Rocket 4.3 21:43:41 10° SSW 21:48:54 69° WNW 21:54:09 10° NNE
Cosmos 2333 Rocket 3.8 21:51:39 17° E 21:51:39 17° E 21:54:59 10° ENE
Cosmos 1933 4.4 21:47:40 10° SSW 21:51:33 46° WNW 21:55:28 10° N
ARGOS 3.1 21:48:04 20° SSE 21:51:52 87° WSW 21:57:17 10° NNW
Cosmos 2278 Rocket 3.2 21:50:13 10° NNW 21:55:25 35° NE 21:58:34 20° E
Cosmos 2237 Rocket 4.1 21:57:32 13° E 21:57:32 13° E 21:59:22 10° ENE
MOS 1-B Rocket 3.9 21:57:31 21° SSE 22:01:41 81° WSW 22:07:20 10° NNW
ATLAS 3B R/B 4.4 21:55:52 10° NW 22:01:52 28° NNE 22:07:36 10° ENE
Cosmos 1844 Rocket 2.7 21:57:22 10° NNW 22:02:58 75° ENE 22:05:45 31° SE
Cosmos 1633 3.5 22:00:30 10° N 22:03:50 32° ENE 22:04:16 31° E
Cosmos 1606 3.4 22:04:35 33° E 22:04:40 33° E 22:08:06 10° NNE
Meteor 1-26 Rocket 4.4 22:02:18 10° SSW 22:08:00 76° WNW 22:13:51 10° N
Abrixas rocket 2.0 22:04:47 10° W 22:08:04 70° S 22:08:18 66° SE
H-2A R/B 2.1 22:12:16 41° SE 22:13:34 63° ENE 22:17:54 10° N
Meteor 1-27 Rocket 4.4 22:16:53 31° ESE 22:18:11 34° E 22:23:12 10° NNE
DMSP B5D2-2 4.3 22:13:35 10° NNE 22:18:41 48° E 22:20:18 37° SE
SPOT 5 3.6 22:15:48 21° SSW 22:18:49 47° W 22:23:18 10° NNW
ASTEX 1 3.6 22:18:35 38° SE 22:20:14 56° ENE 22:25:07 10° N
Atlas Centaur 2 4.4 22:17:06 10° SSW 22:20:44 17° S 22:20:44 17° S
H-2A R/B 2.0 22:19:43 32° S 22:22:04 76° WSW 22:27:02 10° NNW
IGS 5A 3.5 22:23:32 49° SE 22:24:24 62° ENE 22:28:31 10° N
Cosmos 2219 Rocket 2.7 22:25:10 34° ESE 22:25:44 35° ESE 22:30:48 10° NE
Cosmos 1782 2.7 22:25:22 54° SSE 22:26:08 73° E 22:30:10 10° NNE
Cosmos 1745 Rocket 4.3 22:23:36 10° N 22:29:49 55° ENE 22:32:17 35° SE
Geosat 4.2 22:26:35 10° NE 22:31:26 46° ESE 22:32:10 43° SE
Okean 2 Rocket 3.8 22:29:55 10° NNW 22:34:18 49° W 22:36:14 29° SSW
Cosmos 1300 Rocket 3.8 22:31:25 10° N 22:35:39 49° ENE 22:36:11 46° E
Meteor 1-11 Rocket 3.7 22:30:55 10° N 22:36:27 67° ENE 22:38:12 43° SE
Meteor 1-10 Rocket 4.2 22:34:05 33° S 22:36:55 77° E 22:42:48 10° NNE
CZ-4B R/B 3.8 22:35:59 10° NNE 22:40:28 40° E 22:40:35 40° ESE
Cosmos 2237 4.2 22:40:47 14° SSW 22:45:49 84° WNW 22:51:36 10° NNE
Cosmos 1346 Rocket 3.3 22:46:39 46° ENE 22:46:39 46° ENE 22:50:02 10° NNE
Cosmos 1570 Rocket 4.1 22:45:59 49° SE 22:46:44 53° ESE 22:51:53 10° NNE
CRYOSAT 2 4.3 22:46:00 53° SE 22:47:02 70° E 22:51:55 10° N
Cosmos 2208 Rocket 4.1 22:52:11 51° SE 22:52:54 55° ESE 22:58:06 10° NNE
COSMOS 2428 2.6 22:51:19 26° SSW 22:54:41 90° SSW 23:00:27 10° NNE
Cosmos 1602 3.6 22:51:00 10° NNW 22:54:51 82° W 22:54:52 82° WSW
Cosmos 2322 Rocket 4.4 22:50:27 10° W 22:55:04 26° NW 22:59:45 10° NNE
Okean 1-7 4.3 22:53:09 19° SW 22:55:50 38° WNW 22:59:59 10° N
CZ-4C R/B 2.8 22:53:47 10° NW 23:00:45 88° NE 23:03:54 40° SE
deb Chang Zheng 4 3.5 22:56:32 10° NNE 23:00:59 85° WNW 23:01:39 64° SSW
Cosmos 1937 Rocket 3.9 22:57:20 10° NNW 23:02:30 53° ENE 23:03:37 44° ESE
Cosmos 1378 Rocket 4.3 23:04:20 39° ENE 23:04:20 39° ENE 23:08:02 10° NNE
Cosmos 2360 Rocket 3.4 22:59:04 10° WSW 23:04:26 42° NW 23:09:50 10° NNE
Cosmos 2150 Rocket 4.4 22:59:32 10° NNW 23:04:55 58° ENE 23:06:08 47° ESE
NOSS 3-1 (C) 3.4 23:04:36 49° SSE 23:05:42 56° ESE 23:12:09 10° NE
Cosmos 1844 4.2 23:02:15 10° NW 23:07:43 50° WSW 23:09:10 40° SSW
Cosmos 2151 Rocket 4.3 23:03:40 10° NNW 23:07:53 44° W 23:08:46 39° SW
USA 229 DEB 3.8 23:02:53 10° SW 23:09:44 76° NW 23:16:47 10° NE
USA 229 3.8 23:02:57 10° SW 23:09:48 77° NW 23:16:51 10° NE
CZ-2C R/B 4.1 23:10:58 27° E 23:11:50 29° ENE 23:16:02 10° N
Cosmos 1980 3.8 23:11:42 50° ESE 23:11:53 51° ESE 23:17:21 10° NE
Cosmos 858 Rocket 4.5 23:06:58 10° NNW 23:12:14 73° ENE 23:13:04 60° ESE
Cosmos 1553 Rocket 4.0 23:14:10 40° SSW 23:16:36 81° W 23:22:52 10° N
SL-16 R/B 3.6 23:17:41 23° E 23:17:41 23° E 23:21:15 10° NE
Cosmos 990 Rocket 4.2 23:11:45 10° NNW 23:16:50 57° ENE 23:17:38 51° E
SL-24 DEB 4.3 23:17:43 61° E 23:17:51 62° E 23:22:27 10° N
Terra 2.7 23:17:44 35° SW 23:18:45 40° W 23:23:15 10° NNW
NOSS 3-1 (A) 3.5 23:20:10 52° SE 23:20:33 53° ESE 23:26:58 10° NE
DELTA 2 DEB (DPAF) 4.2 23:20:29 65° SW 23:20:45 67° WSW 23:25:14 10° NNW
NOSS 0 Rocket 3.9 23:19:50 54° SSE 23:20:55 64° ESE 23:27:00 10° NE
Cosmos 1536 2.9 23:17:32 10° NNW 23:21:20 73° NW 23:21:20 73° NW
Cosmos 1898 Rocket 3.3 23:17:05 10° NNW 23:22:17 84° WSW 23:22:55 69° S
Cosmos 2084 4.1 23:18:44 10° NW 23:21:37 41° W 23:21:37 41° W
ATLAS 2AS CENTAUR R/B 4.3 23:23:14 21° ESE 23:23:14 21° ESE 23:28:31 10° ENE
Cosmos 2292 Rocket 4.5 23:20:22 10° N 23:22:08 30° N 23:22:08 30° N
Spot 4 4.0 23:23:32 57° SW 23:24:03 61° WSW 23:28:49 10° NNW
USA 267 4.2 23:18:41 10° ENE 23:24:54 48° N 23:31:07 10° WNW
CZ-4B R/B 4.3 23:30:31 10° NE 23:30:31 10° NE 23:30:32 10° NE
CZ-4 R/B 4.1 23:26:55 10° N 23:31:40 65° WNW 23:32:36 52° WSW
Okean 1 Rocket 3.2 23:27:50 10° NNW 23:32:14 63° W 23:32:15 63° W
CZ-4C R/B 4.1 23:34:11 44° WNW 23:34:11 44° WNW 23:37:13 10° NNW
Cosmos 2333 Rocket 2.1 23:33:35 55° SSW 23:34:56 88° ESE 23:40:45 10° NNE
Cosmos 1455 Rocket 4.0 23:33:58 10° N 23:37:57 37° ENE 23:37:57 37° ENE
Iridium 4 Rocket 3.8 23:35:11 10° NNW 23:39:08 41° W 23:39:15 41° W
Cosmos 2278 Rocket 2.5 23:34:16 10° NW 23:39:43 50° WSW 23:40:25 47° SW
Cosmos 2237 Rocket 2.1 23:39:19 68° SSE 23:39:55 75° ESE 23:45:38 10° NNE
Cosmos 1674 Rocket 4.1 23:40:47 48° W 23:41:06 49° WNW 23:45:20 10° N
Cosmos 1763 Rocket 4.4 23:41:57 35° E 23:41:57 35° E 23:46:05 10° NE
Okean 3 3.7 23:45:00 66° NNW 23:45:00 66° NNW 23:48:42 10° N
S3M 4.5 23:43:29 34° SW 23:45:57 54° WNW 23:52:04 10° N
Cosmos 883 Rocket 4.3 23:44:57 60° S 23:46:11 88° E 23:52:21 10° N
Cosmos 1844 Rocket 4.4 23:42:18 10° NW 23:46:15 20° W 23:47:25 19° WSW
H-2A R/B 4.2 23:49:23 16° W 23:50:02 16° W 23:52:45 10° NW
Cosmos 1709 Rocket 4.0 23:43:55 10° N 23:50:20 84° W 23:51:40 59° S
Cosmos 1814 Rocket 4.1 23:53:02 57° E 23:53:02 57° E 23:57:42 10° NNE
ALOS 2 2.9 23:53:36 62° NE 23:53:36 62° NE 23:57:38 10° N
Meteor 1-5 Rocket 4.5 23:48:16 10° NNW 23:53:45 57° W 23:54:37 51° SW
CZ-2C R/B 3.2 23:48:55 10° NNE 23:54:08 45° E 23:54:08 45° E
